Weather History for Mobile, AL

Change the Weather History Date:

Monday, January 21, 2013

  Actual Average Record
Temperature  
Mean Temperature 54 °F 50 °F  
Max Temperature 67 °F 61 °F 78 °F (2012)
Min Temperature 40 °F 40 °F 3 °F (1985)
Degree Days  
Heating Degree Days 11 15  
Month to date heating degree days 235 315  
Since 1 July heating degree days 836 977  
Cooling Degree Days 0 0  
Month to date cooling degree days 19 0  
Year to date cooling degree days 19 0  
Growing Degree Days 2 (Base 50)    
Moisture  
Dew Point 40 °F    
Average Humidity 67    
Maximum Humidity 100    
Minimum Humidity 34    
Precipitation  
Precipitation 0.00 in 0.20 in 2.67 in (1877)
Month to date precipitation 1.96 3.80  
Year to date precipitation 1.96 3.80  
Snow  
Snow 0.00 in 0.00 in - ()
Month to date snowfall 0.0 0.0  
Since 1 July snowfall 0.0 T  
Snow Depth 0.00 in    
Sea Level Pressure  
Sea Level Pressure 30.17 in    
Wind  
Wind Speed 6 mph (NNW)    
Max Wind Speed 13 mph    
Max Gust Speed 22 mph    
Visibility 8 miles    
Events      
T = Trace of Precipitation, MM = Missing Value Source: NWS Daily Summary

Daily Weather History Graph

Daily Weather History Graph

Search for Another Location

Airport:

Trip Planner

Search our weather history database for the weather conditions in past years. The results will help you decide how hot, cold, wet, or windy it might be!

Date:

Astronomy

Jan. 21, 2013 Rise Set
Actual Time 6:49 AM CST 5:19 PM CST
Civil Twilight 6:23 AM CST 5:45 PM CST
Nautical Twilight 5:54 AM CST 6:14 PM CST
Astronomical Twilight 5:25 AM CST 6:43 PM CST
Moon 1:00 PM CST 2:16 AM CST
Length of Visible Light 11h 21m
Length of Day
10h 30m
Waxing Gibbous, 75% of the Moon is Illuminated
Jan 21
Waxing Gibbous
Jan 26
Full
Feb 3
Last Quarter
Feb 10
New
Feb 17
First Quarter

Hourly Weather History & Observations

Time (CST) Temp. Windchill Dew Point Humidity Pressure Visibility Wind Dir Wind Speed Gust Speed Precip Events Conditions
12:56 AM 43.0 °F - 41.0 °F 93% 30.15 in 3.0 mi Calm Calm - N/A   Scattered Clouds
1:56 AM 43.0 °F 41.3 °F 41.0 °F 93% 30.14 in 2.0 mi WNW 3.5 mph - N/A   Scattered Clouds
2:18 AM 44.6 °F - 42.8 °F 93% 30.14 in 1.2 mi Calm Calm - N/A   Mostly Cloudy
2:36 AM 41.0 °F - 39.2 °F 93% 30.13 in 0.8 mi Calm Calm - N/A   Mostly Cloudy
2:56 AM 44.1 °F - 42.1 °F 93% 30.13 in 0.8 mi Calm Calm - N/A   Mostly Cloudy
3:21 AM 42.8 °F 40.1 °F 42.8 °F 100% 30.14 in 1.8 mi West 4.6 mph - N/A   Scattered Clouds
3:38 AM 41.0 °F 39.0 °F 39.2 °F 93% 30.14 in 3.0 mi West 3.5 mph - N/A   Partly Cloudy
3:56 AM 41.0 °F 38.0 °F 39.9 °F 96% 30.14 in 7.0 mi West 4.6 mph - N/A   Scattered Clouds
4:56 AM 43.0 °F - 41.0 °F 93% 30.15 in 7.0 mi Calm Calm - N/A   Scattered Clouds
5:56 AM 43.0 °F 40.3 °F 42.1 °F 97% 30.16 in 6.0 mi WNW 4.6 mph - N/A   Scattered Clouds
6:56 AM 39.9 °F - 39.0 °F 97% 30.17 in 7.0 mi Calm Calm - N/A   Scattered Clouds
7:56 AM 46.0 °F 44.8 °F 42.1 °F 86% 30.19 in 7.0 mi NNW 3.5 mph - N/A   Mostly Cloudy
8:56 AM 54.0 °F - 42.1 °F 64% 30.22 in 10.0 mi North 6.9 mph - N/A   Overcast
9:56 AM 59.0 °F - 41.0 °F 51% 30.22 in 10.0 mi North 6.9 mph - N/A   Overcast
10:56 AM 63.0 °F - 41.0 °F 45% 30.19 in 10.0 mi NNE 6.9 mph - N/A   Overcast
11:56 AM 64.9 °F - 39.0 °F 39% 30.17 in 10.0 mi NNW 6.9 mph 21.9 mph N/A   Overcast
12:56 PM 66.0 °F - 37.9 °F 36% 30.15 in 10.0 mi North 9.2 mph - N/A   Mostly Cloudy
1:56 PM 66.0 °F - 39.0 °F 37% 30.14 in 10.0 mi Variable 6.9 mph - N/A   Mostly Cloudy
2:56 PM 66.0 °F - 37.9 °F 36% 30.14 in 10.0 mi NNW 11.5 mph - N/A   Mostly Cloudy
3:56 PM 64.9 °F - 37.9 °F 37% 30.15 in 10.0 mi North 11.5 mph - N/A   Mostly Cloudy
4:56 PM 61.0 °F - 39.9 °F 46% 30.16 in 10.0 mi North 8.1 mph - N/A   Mostly Cloudy
5:56 PM 57.0 °F - 39.9 °F 53% 30.18 in 10.0 mi North 4.6 mph - N/A   Mostly Cloudy
6:56 PM 55.9 °F - 39.9 °F 55% 30.20 in 10.0 mi North 6.9 mph - N/A   Scattered Clouds
7:56 PM 54.0 °F - 39.9 °F 59% 30.21 in 10.0 mi North 6.9 mph - N/A   Mostly Cloudy
8:56 PM 53.1 °F - 39.9 °F 61% 30.22 in 10.0 mi NNE 5.8 mph - N/A   Scattered Clouds
9:56 PM 50.0 °F - 39.0 °F 66% 30.22 in 10.0 mi NNE 6.9 mph - N/A   Scattered Clouds
10:56 PM 48.0 °F - 37.9 °F 68% 30.21 in 10.0 mi NNE 4.6 mph - N/A   Mostly Cloudy
11:56 PM 46.9 °F - 36.0 °F 66% 30.22 in 10.0 mi North 5.8 mph - N/A   Mostly Cloudy